Year,Month,Day,Hour,Minute,Value (Times are PST for temperature in C)
2007,09,13,00,00,12.10
2007,09,13,00,01,12.10
2007,09,13,00,02,12.10
2007,09,13,00,03,12.10
2007,09,13,00,04,12.10
2007,09,13,00,05,12.10
2007,09,13,00,06,12.00
2007,09,13,00,07,12.00
2007,09,13,00,08,12.00
2007,09,13,00,09,12.00
2007,09,13,00,10,12.00
2007,09,13,00,11,12.00
2007,09,13,00,12,12.00
2007,09,13,00,13,12.00
2007,09,13,00,14,12.00
2007,09,13,00,15,12.00
2007,09,13,00,16,12.00
2007,09,13,00,17,12.00
2007,09,13,00,18,12.00
2007,09,13,00,19,12.00
2007,09,13,00,20,12.00
2007,09,13,00,21,11.90
2007,09,13,00,22,11.90
2007,09,13,00,23,11.90
2007,09,13,00,24,11.90
2007,09,13,00,25,11.80
2007,09,13,00,26,11.80
2007,09,13,00,27,11.80
2007,09,13,00,28,11.80
2007,09,13,00,29,11.80
2007,09,13,00,30,11.70
2007,09,13,00,31,11.70
2007,09,13,00,32,11.70
2007,09,13,00,33,11.70
2007,09,13,00,34,11.70
2007,09,13,00,35,11.60
2007,09,13,00,36,11.60
2007,09,13,00,37,11.60
2007,09,13,00,38,11.60
2007,09,13,00,39,11.60
2007,09,13,00,40,11.60
2007,09,13,00,41,11.60
2007,09,13,00,42,11.60
2007,09,13,00,43,11.50
2007,09,13,00,44,11.40
2007,09,13,00,45,11.40
2007,09,13,00,46,11.40
2007,09,13,00,47,11.40
2007,09,13,00,48,11.30
2007,09,13,00,49,11.30
2007,09,13,00,50,11.30
2007,09,13,00,51,11.20
2007,09,13,00,52,11.20
2007,09,13,00,53,11.20
2007,09,13,00,54,11.20
2007,09,13,00,55,11.10
2007,09,13,00,56,11.20
2007,09,13,00,57,11.20
2007,09,13,00,58,11.20
2007,09,13,00,59,11.20
2007,09,13,01,00,11.20
2007,09,13,01,01,11.10
2007,09,13,01,02,11.10
2007,09,13,01,03,11.10
2007,09,13,01,04,11.10
2007,09,13,01,05,11.10
2007,09,13,01,06,11.10
2007,09,13,01,07,11.10
2007,09,13,01,08,11.10
2007,09,13,01,09,11.00
2007,09,13,01,10,10.90
2007,09,13,01,11,10.90
2007,09,13,01,12,10.90
2007,09,13,01,13,10.90
2007,09,13,01,14,10.90
2007,09,13,01,15,10.90
2007,09,13,01,16,10.90
2007,09,13,01,17,10.90
2007,09,13,01,18,10.80
2007,09,13,01,19,10.80
2007,09,13,01,20,10.70
2007,09,13,01,21,10.70
2007,09,13,01,22,10.70
2007,09,13,01,23,10.60
2007,09,13,01,24,10.60
2007,09,13,01,25,10.60
2007,09,13,01,26,10.60
2007,09,13,01,27,10.60
2007,09,13,01,28,10.60
2007,09,13,01,29,10.70
2007,09,13,01,30,10.70
2007,09,13,01,31,10.70
2007,09,13,01,32,10.70
2007,09,13,01,33,10.70
2007,09,13,01,34,10.70
2007,09,13,01,35,10.70
2007,09,13,01,36,10.60
2007,09,13,01,37,10.60
2007,09,13,01,38,10.60
2007,09,13,01,39,10.60
2007,09,13,01,40,10.60
2007,09,13,01,41,10.60
2007,09,13,01,42,10.60
2007,09,13,01,43,10.60
2007,09,13,01,44,10.40
2007,09,13,01,45,10.40
2007,09,13,01,46,10.40
2007,09,13,01,47,10.40
2007,09,13,01,48,10.40
2007,09,13,01,49,10.40
2007,09,13,01,50,10.40
2007,09,13,01,51,10.40
2007,09,13,01,52,10.40
2007,09,13,01,53,10.30
2007,09,13,01,54,10.30
2007,09,13,01,55,10.30
2007,09,13,01,56,10.30
2007,09,13,01,57,10.30
2007,09,13,01,58,10.30
2007,09,13,01,59,10.30
2007,09,13,02,00,10.30
2007,09,13,02,01,10.20
2007,09,13,02,02,10.20
2007,09,13,02,03,10.20
2007,09,13,02,04,10.20
2007,09,13,02,05,10.10
2007,09,13,02,06,10.10
2007,09,13,02,07,10.10
2007,09,13,02,08,10.10
2007,09,13,02,09,10.10
2007,09,13,02,10,10.10
2007,09,13,02,11,10.10
2007,09,13,02,12,10.10
2007,09,13,02,13,10.10
2007,09,13,02,14,10.10
2007,09,13,02,15,10.10
2007,09,13,02,16,10.10
2007,09,13,02,17,10.10
2007,09,13,02,18,10.10
2007,09,13,02,19,10.10
2007,09,13,02,20,10.10
2007,09,13,02,21,10.20
2007,09,13,02,22,10.20
2007,09,13,02,23,10.20
2007,09,13,02,24,10.20
2007,09,13,02,25,10.20
2007,09,13,02,26,10.20
2007,09,13,02,27,10.30
2007,09,13,02,28,10.30
2007,09,13,02,29,10.30
2007,09,13,02,30,10.30
2007,09,13,02,31,10.30
2007,09,13,02,32,10.30
2007,09,13,02,33,10.30
2007,09,13,02,34,10.30
2007,09,13,02,35,10.30
2007,09,13,02,36,10.40
2007,09,13,02,37,10.40
2007,09,13,02,38,10.40
2007,09,13,02,39,10.40
2007,09,13,02,40,10.40
2007,09,13,02,41,10.40
2007,09,13,02,42,10.60
2007,09,13,02,43,10.60
2007,09,13,02,44,10.60
2007,09,13,02,45,10.60
2007,09,13,02,46,10.60
2007,09,13,02,47,10.70
2007,09,13,02,48,10.80
2007,09,13,02,49,10.80
2007,09,13,02,50,10.90
2007,09,13,02,51,10.90
2007,09,13,02,52,10.90
2007,09,13,02,53,10.90
2007,09,13,02,54,10.90
2007,09,13,02,55,10.90
2007,09,13,02,56,10.90
2007,09,13,02,57,10.90
2007,09,13,02,58,10.90
2007,09,13,02,59,10.90
2007,09,13,03,00,10.90
2007,09,13,03,01,11.00
2007,09,13,03,02,11.10
2007,09,13,03,03,11.10
2007,09,13,03,04,11.10
2007,09,13,03,05,11.10
2007,09,13,03,06,11.10
2007,09,13,03,07,11.10
2007,09,13,03,08,11.10
2007,09,13,03,09,11.10
2007,09,13,03,10,11.10
2007,09,13,03,11,11.10
2007,09,13,03,12,11.10
2007,09,13,03,13,11.00
2007,09,13,03,14,10.90
2007,09,13,03,15,10.90
2007,09,13,03,16,10.90
2007,09,13,03,17,10.90
2007,09,13,03,18,10.90
2007,09,13,03,19,10.90
2007,09,13,03,20,10.90
2007,09,13,03,21,10.90
2007,09,13,03,22,10.90
2007,09,13,03,23,10.90
2007,09,13,03,24,10.90
2007,09,13,03,25,10.90
2007,09,13,03,26,10.80
2007,09,13,03,27,10.80
2007,09,13,03,28,10.80
2007,09,13,03,29,10.80
2007,09,13,03,30,10.80
2007,09,13,03,31,10.80
2007,09,13,03,32,10.80
2007,09,13,03,33,10.70
2007,09,13,03,34,10.70
2007,09,13,03,35,10.70
2007,09,13,03,36,10.70
2007,09,13,03,37,10.60
2007,09,13,03,38,10.60
2007,09,13,03,39,10.60
2007,09,13,03,40,10.60
2007,09,13,03,41,10.60
2007,09,13,03,42,10.60
2007,09,13,03,43,10.50
2007,09,13,03,44,10.40
2007,09,13,03,45,10.40
2007,09,13,03,46,10.40
2007,09,13,03,47,10.40
2007,09,13,03,48,10.40
2007,09,13,03,49,10.40
2007,09,13,03,50,10.30
2007,09,13,03,51,10.30
2007,09,13,03,52,10.20
2007,09,13,03,53,10.20
2007,09,13,03,54,10.20
2007,09,13,03,55,10.10
2007,09,13,03,56,10.10
2007,09,13,03,57,10.10
2007,09,13,03,58,10.10
2007,09,13,03,59,10.10
2007,09,13,04,00,10.10
2007,09,13,04,01,10.10
2007,09,13,04,02,10.10
2007,09,13,04,03,10.10
2007,09,13,04,04,10.10
2007,09,13,04,05,10.10
2007,09,13,04,06,10.10
2007,09,13,04,07,10.10
2007,09,13,04,08,10.10
2007,09,13,04,09,10.10
2007,09,13,04,10,10.10
2007,09,13,04,11,10.10
2007,09,13,04,12,10.10
2007,09,13,04,13,10.10
2007,09,13,04,14,10.10
2007,09,13,04,15,10.00
2007,09,13,04,16,9.90
2007,09,13,04,17,9.90
2007,09,13,04,18,9.90
2007,09,13,04,19,9.90
2007,09,13,04,20,9.80
2007,09,13,04,21,9.80
2007,09,13,04,22,9.70
2007,09,13,04,23,9.70
2007,09,13,04,24,9.70
2007,09,13,04,25,9.70
2007,09,13,04,26,9.70
2007,09,13,04,27,9.70
2007,09,13,04,28,9.60
2007,09,13,04,29,9.60
2007,09,13,04,30,9.60
2007,09,13,04,31,9.60
2007,09,13,04,32,9.60
2007,09,13,04,33,9.50
2007,09,13,04,34,9.50
2007,09,13,04,35,9.50
2007,09,13,04,36,9.50
2007,09,13,04,37,9.50
2007,09,13,04,38,9.40
2007,09,13,04,39,9.40
2007,09,13,04,40,9.40
2007,09,13,04,41,9.40
2007,09,13,04,42,9.30
2007,09,13,04,43,9.30
2007,09,13,04,44,9.30
2007,09,13,04,45,9.30
2007,09,13,04,46,9.30
2007,09,13,04,47,9.30
2007,09,13,04,48,9.30
2007,09,13,04,49,9.20
2007,09,13,04,50,9.20
2007,09,13,04,51,9.20
2007,09,13,04,52,9.20
2007,09,13,04,53,9.20
2007,09,13,04,54,9.20
2007,09,13,04,55,9.10
2007,09,13,04,56,9.10
2007,09,13,04,57,9.00
2007,09,13,04,58,9.00
2007,09,13,04,59,9.00
2007,09,13,05,00,9.00
2007,09,13,05,01,9.00
2007,09,13,05,02,9.00
2007,09,13,05,03,9.10
2007,09,13,05,04,9.10
2007,09,13,05,05,9.10
2007,09,13,05,06,9.10
2007,09,13,05,07,9.10
2007,09,13,05,08,9.20
2007,09,13,05,09,9.20
2007,09,13,05,10,9.10
2007,09,13,05,11,9.10
2007,09,13,05,12,9.00
2007,09,13,05,13,9.00
2007,09,13,05,14,9.00
2007,09,13,05,15,9.00
2007,09,13,05,16,9.00
2007,09,13,05,17,9.00
2007,09,13,05,18,9.00
2007,09,13,05,19,9.10
2007,09,13,05,20,9.10
2007,09,13,05,21,9.10
2007,09,13,05,22,9.10
2007,09,13,05,23,9.10
2007,09,13,05,24,9.10
2007,09,13,05,25,9.10
2007,09,13,05,26,9.10
2007,09,13,05,27,9.10
2007,09,13,05,28,9.20
2007,09,13,05,29,9.20
2007,09,13,05,30,9.20
2007,09,13,05,31,9.20
2007,09,13,05,32,9.20
2007,09,13,05,33,9.20
2007,09,13,05,34,9.30
2007,09,13,05,35,9.30
2007,09,13,05,36,9.30
2007,09,13,05,37,9.40
2007,09,13,05,38,9.40
2007,09,13,05,39,9.40
2007,09,13,05,40,9.40
2007,09,13,05,41,9.40
2007,09,13,05,42,9.50
2007,09,13,05,43,9.50
2007,09,13,05,44,9.50
2007,09,13,05,45,9.50
2007,09,13,05,46,9.50
2007,09,13,05,47,9.50
2007,09,13,05,48,9.50
2007,09,13,05,49,9.50
2007,09,13,05,50,9.50
2007,09,13,05,51,9.50
2007,09,13,05,52,9.50
2007,09,13,05,53,9.50
2007,09,13,05,54,9.50
2007,09,13,05,55,9.50
2007,09,13,05,56,9.60
2007,09,13,05,57,9.60
2007,09,13,05,58,9.60
2007,09,13,05,59,9.60
2007,09,13,06,00,9.60
2007,09,13,06,01,9.60
2007,09,13,06,02,9.60
2007,09,13,06,03,9.60
2007,09,13,06,04,9.60
2007,09,13,06,05,9.50
2007,09,13,06,06,9.50
2007,09,13,06,07,9.50
2007,09,13,06,08,9.50
2007,09,13,06,09,9.40
2007,09,13,06,10,9.40
2007,09,13,06,11,9.40
2007,09,13,06,12,9.40
2007,09,13,06,13,9.40
2007,09,13,06,14,9.30
2007,09,13,06,15,9.30
2007,09,13,06,16,9.30
2007,09,13,06,17,9.30
2007,09,13,06,18,9.30
2007,09,13,06,19,9.30
2007,09,13,06,20,9.30
2007,09,13,06,21,9.30
2007,09,13,06,22,9.30
2007,09,13,06,23,9.30
2007,09,13,06,24,9.20
2007,09,13,06,25,9.20
2007,09,13,06,26,9.20
2007,09,13,06,27,9.20
2007,09,13,06,28,9.20
2007,09,13,06,29,9.20
2007,09,13,06,30,9.20
2007,09,13,06,31,9.20
2007,09,13,06,32,9.20
2007,09,13,06,33,9.20
2007,09,13,06,34,9.20
2007,09,13,06,35,9.20
2007,09,13,06,36,9.10
2007,09,13,06,37,9.10
2007,09,13,06,38,9.10
2007,09,13,06,39,9.10
2007,09,13,06,40,9.10
2007,09,13,06,41,9.10
2007,09,13,06,42,9.10
2007,09,13,06,43,9.10
2007,09,13,06,44,9.10
2007,09,13,06,45,9.10
2007,09,13,06,46,9.10
2007,09,13,06,47,9.10
2007,09,13,06,48,9.10
2007,09,13,06,49,9.00
2007,09,13,06,50,9.00
2007,09,13,06,51,9.00
2007,09,13,06,52,9.00
2007,09,13,06,53,9.00
2007,09,13,06,54,9.00
2007,09,13,06,55,9.00
2007,09,13,06,56,9.00
2007,09,13,06,57,9.00
2007,09,13,06,58,9.00
2007,09,13,06,59,9.00
2007,09,13,07,00,9.00
2007,09,13,07,01,9.00
2007,09,13,07,02,9.00
2007,09,13,07,03,8.90
2007,09,13,07,04,8.90
2007,09,13,07,05,8.90
2007,09,13,07,06,8.90
2007,09,13,07,07,8.90
2007,09,13,07,08,8.90
2007,09,13,07,09,8.90
2007,09,13,07,10,8.90
2007,09,13,07,11,8.90
2007,09,13,07,12,8.90
2007,09,13,07,13,8.90
2007,09,13,07,14,9.00
2007,09,13,07,15,9.00
2007,09,13,07,16,9.00
2007,09,13,07,17,9.00
2007,09,13,07,18,9.00
2007,09,13,07,19,9.10
2007,09,13,07,20,9.10
2007,09,13,07,21,9.10
2007,09,13,07,22,9.10
2007,09,13,07,23,9.10
2007,09,13,07,24,9.10
2007,09,13,07,25,9.10
2007,09,13,07,26,9.10
2007,09,13,07,27,9.10
2007,09,13,07,28,9.10
2007,09,13,07,29,9.10
2007,09,13,07,30,9.10
2007,09,13,07,31,9.10
2007,09,13,07,32,9.10
2007,09,13,07,33,9.00
2007,09,13,07,34,9.00
2007,09,13,07,35,9.00
2007,09,13,07,36,9.00
2007,09,13,07,37,9.00
2007,09,13,07,38,9.00
2007,09,13,07,39,9.00
2007,09,13,07,40,9.00
2007,09,13,07,41,9.00
2007,09,13,07,42,9.00
2007,09,13,07,43,9.10
2007,09,13,07,44,9.10
2007,09,13,07,45,9.10
2007,09,13,07,46,9.10
2007,09,13,07,47,9.20
2007,09,13,07,48,9.20
2007,09,13,07,49,9.20
2007,09,13,07,50,9.30
2007,09,13,07,51,9.30
2007,09,13,07,52,9.30
2007,09,13,07,53,9.40
2007,09,13,07,54,9.40
2007,09,13,07,55,9.40
2007,09,13,07,56,9.40
2007,09,13,07,57,9.40
2007,09,13,07,58,9.50
2007,09,13,07,59,9.50
2007,09,13,08,00,9.60
2007,09,13,08,01,9.60
2007,09,13,08,02,9.70
2007,09,13,08,03,9.80
2007,09,13,08,04,9.90
2007,09,13,08,05,10.10
2007,09,13,08,06,10.20
2007,09,13,08,07,10.30
2007,09,13,08,08,10.50
2007,09,13,08,09,10.60
2007,09,13,08,10,10.70
2007,09,13,08,11,10.80
2007,09,13,08,12,10.90
2007,09,13,08,13,10.90
2007,09,13,08,14,11.00
2007,09,13,08,15,11.10
2007,09,13,08,16,11.10
2007,09,13,08,17,11.20
2007,09,13,08,18,11.30
2007,09,13,08,19,11.40
2007,09,13,08,20,11.50
2007,09,13,08,21,11.60
2007,09,13,08,22,11.60
2007,09,13,08,23,11.70
2007,09,13,08,24,11.70
2007,09,13,08,25,11.80
2007,09,13,08,26,11.80
2007,09,13,08,27,11.80
2007,09,13,08,28,11.80
2007,09,13,08,29,11.90
2007,09,13,08,30,11.90
2007,09,13,08,31,12.00
2007,09,13,08,32,12.00
2007,09,13,08,33,12.00
2007,09,13,08,34,12.10
2007,09,13,08,35,12.10
2007,09,13,08,36,12.10
2007,09,13,08,37,12.10
2007,09,13,08,38,12.20
2007,09,13,08,39,12.30
2007,09,13,08,40,12.30
2007,09,13,08,41,12.30
2007,09,13,08,42,12.40
2007,09,13,08,43,12.50
2007,09,13,08,44,12.50
2007,09,13,08,45,12.60
2007,09,13,08,46,12.60
2007,09,13,08,47,12.70
2007,09,13,08,48,12.80
2007,09,13,08,49,12.90
2007,09,13,08,50,13.00
2007,09,13,08,51,13.10
2007,09,13,08,52,13.20
2007,09,13,08,53,13.30
2007,09,13,08,54,13.40
2007,09,13,08,55,13.50
2007,09,13,08,56,13.60
2007,09,13,08,57,13.70
2007,09,13,08,58,13.80
2007,09,13,08,59,13.90
2007,09,13,09,00,14.00
2007,09,13,09,01,14.00
2007,09,13,09,02,14.10
2007,09,13,09,03,14.20
2007,09,13,09,04,14.20
2007,09,13,09,05,14.30
2007,09,13,09,06,14.40
2007,09,13,09,07,14.50
2007,09,13,09,08,14.50
2007,09,13,09,09,14.60
2007,09,13,09,10,14.60
2007,09,13,09,11,14.70
2007,09,13,09,12,14.80
2007,09,13,09,13,14.80
2007,09,13,09,14,14.90
2007,09,13,09,15,15.00
2007,09,13,09,16,15.10
2007,09,13,09,17,15.10
2007,09,13,09,18,15.10
2007,09,13,09,19,15.20
2007,09,13,09,20,15.30
2007,09,13,09,21,15.30
2007,09,13,09,22,15.40
2007,09,13,09,23,15.40
2007,09,13,09,24,15.50
2007,09,13,09,25,15.50
2007,09,13,09,26,15.60
2007,09,13,09,27,15.60
2007,09,13,09,28,15.70
2007,09,13,09,29,15.70
2007,09,13,09,30,15.70
2007,09,13,09,31,15.70
2007,09,13,09,32,15.70
2007,09,13,09,33,15.80
2007,09,13,09,34,15.80
2007,09,13,09,35,15.80
2007,09,13,09,36,15.80
2007,09,13,09,37,15.80
2007,09,13,09,38,15.80
2007,09,13,09,39,15.90
2007,09,13,09,40,16.00
2007,09,13,09,41,16.10
2007,09,13,09,42,16.10
2007,09,13,09,43,16.20
2007,09,13,09,44,16.20
2007,09,13,09,45,16.30
2007,09,13,09,46,16.30
2007,09,13,09,47,16.30
2007,09,13,09,48,16.30
2007,09,13,09,49,16.40
2007,09,13,09,50,16.40
2007,09,13,09,51,16.40
2007,09,13,09,52,16.50
2007,09,13,09,53,16.60
2007,09,13,09,54,16.60
2007,09,13,09,55,16.60
2007,09,13,09,56,16.60
2007,09,13,09,57,16.70
2007,09,13,09,58,16.70
2007,09,13,09,59,16.70
2007,09,13,10,00,16.80
2007,09,13,10,01,16.90
2007,09,13,10,02,17.00
2007,09,13,10,03,17.00
2007,09,13,10,04,17.10
2007,09,13,10,05,17.10
2007,09,13,10,06,17.20
2007,09,13,10,07,17.20
2007,09,13,10,08,17.30
2007,09,13,10,09,17.30
2007,09,13,10,10,17.30
2007,09,13,10,11,17.30
2007,09,13,10,12,17.30
2007,09,13,10,13,17.40
2007,09,13,10,14,17.40
2007,09,13,10,15,17.50
2007,09,13,10,16,17.50
2007,09,13,10,17,17.60
2007,09,13,10,18,17.60
2007,09,13,10,19,17.60
2007,09,13,10,20,17.50
2007,09,13,10,21,17.50
2007,09,13,10,22,17.50
2007,09,13,10,23,17.50
2007,09,13,10,24,17.60
2007,09,13,10,25,17.70
2007,09,13,10,26,17.70
2007,09,13,10,27,17.70
2007,09,13,10,28,17.80
2007,09,13,10,29,17.70
2007,09,13,10,30,17.80
2007,09,13,10,31,17.80
2007,09,13,10,32,17.90
2007,09,13,10,33,17.90
2007,09,13,10,34,17.90
2007,09,13,10,35,17.90
2007,09,13,10,36,17.90
2007,09,13,10,37,17.90
2007,09,13,10,38,17.90
2007,09,13,10,39,18.00
2007,09,13,10,40,18.10
2007,09,13,10,41,17.90
2007,09,13,10,42,17.90
2007,09,13,10,43,17.90
2007,09,13,10,44,17.90
2007,09,13,10,45,18.00
2007,09,13,10,46,18.10
2007,09,13,10,47,18.10
2007,09,13,10,48,18.20
2007,09,13,10,49,18.20
2007,09,13,10,50,18.20
2007,09,13,10,51,18.20
2007,09,13,10,52,18.30
2007,09,13,10,53,18.30
2007,09,13,10,54,18.40
2007,09,13,10,55,18.50
2007,09,13,10,56,18.60
2007,09,13,10,57,18.70
2007,09,13,10,58,18.70
2007,09,13,10,59,18.80
2007,09,13,11,00,18.80
2007,09,13,11,01,18.80
2007,09,13,11,02,18.80
2007,09,13,11,03,18.90
2007,09,13,11,04,19.00
2007,09,13,11,05,19.10
2007,09,13,11,06,19.10
2007,09,13,11,07,19.20
2007,09,13,11,08,19.30
2007,09,13,11,09,19.40
2007,09,13,11,10,19.40
2007,09,13,11,11,19.50
2007,09,13,11,12,19.50
2007,09,13,11,13,19.50
2007,09,13,11,14,19.60
2007,09,13,11,15,19.70
2007,09,13,11,16,19.80
2007,09,13,11,17,19.80
2007,09,13,11,18,19.90
2007,09,13,11,19,19.90
2007,09,13,11,20,19.90
2007,09,13,11,21,20.00
2007,09,13,11,22,20.10
2007,09,13,11,23,20.20
2007,09,13,11,24,20.20
2007,09,13,11,25,20.20
2007,09,13,11,26,20.10
2007,09,13,11,27,20.10
2007,09,13,11,28,20.10
2007,09,13,11,29,20.10
2007,09,13,11,30,20.10
2007,09,13,11,31,20.20
2007,09,13,11,32,20.20
2007,09,13,11,33,20.20
2007,09,13,11,34,20.20
2007,09,13,11,35,20.20
2007,09,13,11,36,20.20
2007,09,13,11,37,20.20
2007,09,13,11,38,20.20
2007,09,13,11,39,20.20
2007,09,13,11,40,20.20
2007,09,13,11,41,20.30
2007,09,13,11,42,20.40
2007,09,13,11,43,20.40
2007,09,13,11,44,20.40
2007,09,13,11,45,20.30
2007,09,13,11,46,20.20
2007,09,13,11,47,20.10
2007,09,13,11,48,20.00
2007,09,13,11,49,20.00
2007,09,13,11,50,20.10
2007,09,13,11,51,20.20
2007,09,13,11,52,20.20
2007,09,13,11,53,20.20
2007,09,13,11,54,20.20
2007,09,13,11,55,20.20
2007,09,13,11,56,20.30
2007,09,13,11,57,20.30
2007,09,13,11,58,20.30
2007,09,13,11,59,20.40
2007,09,13,12,00,20.50
2007,09,13,12,01,20.60
2007,09,13,12,02,20.70
2007,09,13,12,03,20.80
2007,09,13,12,04,20.80
2007,09,13,12,05,20.80
2007,09,13,12,06,20.80
2007,09,13,12,07,20.80
2007,09,13,12,08,20.70
2007,09,13,12,09,20.70
2007,09,13,12,10,20.80
2007,09,13,12,11,20.80
2007,09,13,12,12,20.80
2007,09,13,12,13,20.80
2007,09,13,12,14,20.80
2007,09,13,12,15,20.80
2007,09,13,12,16,20.90
2007,09,13,12,17,20.90
2007,09,13,12,18,20.80
2007,09,13,12,19,20.80
2007,09,13,12,20,20.80
2007,09,13,12,21,20.90
2007,09,13,12,22,21.00
2007,09,13,12,23,21.10
2007,09,13,12,24,21.10
2007,09,13,12,25,21.10
2007,09,13,12,26,21.10
2007,09,13,12,27,21.20
2007,09,13,12,28,21.20
2007,09,13,12,29,21.20
2007,09,13,12,30,21.20
2007,09,13,12,31,21.30
2007,09,13,12,32,21.30
2007,09,13,12,33,21.30
2007,09,13,12,34,21.30
2007,09,13,12,35,21.30
2007,09,13,12,36,21.30
2007,09,13,12,37,21.30
2007,09,13,12,38,21.30
2007,09,13,12,39,21.30
2007,09,13,12,40,21.30
2007,09,13,12,41,21.30
2007,09,13,12,42,21.30
2007,09,13,12,43,21.20
2007,09,13,12,44,21.10
2007,09,13,12,45,21.10
2007,09,13,12,46,21.20
2007,09,13,12,47,21.20
2007,09,13,12,48,21.20
2007,09,13,12,49,21.20
2007,09,13,12,50,21.10
2007,09,13,12,51,21.00
2007,09,13,12,52,21.00
2007,09,13,12,53,21.00
2007,09,13,12,54,21.10
2007,09,13,12,55,21.10
2007,09,13,12,56,21.20
2007,09,13,12,57,21.20
2007,09,13,12,58,21.20
2007,09,13,12,59,21.20
2007,09,13,13,00,21.20
2007,09,13,13,01,21.20
2007,09,13,13,02,21.20
2007,09,13,13,03,21.20
2007,09,13,13,04,21.30
2007,09,13,13,05,21.40
2007,09,13,13,06,21.40
2007,09,13,13,07,21.60
2007,09,13,13,08,21.70
2007,09,13,13,09,21.70
2007,09,13,13,10,21.70
2007,09,13,13,11,21.70
2007,09,13,13,12,21.70
2007,09,13,13,13,21.70
2007,09,13,13,14,21.70
2007,09,13,13,15,21.70
2007,09,13,13,16,21.70
2007,09,13,13,17,21.70
2007,09,13,13,18,21.70
2007,09,13,13,19,21.60
2007,09,13,13,20,21.60
2007,09,13,13,21,21.60
2007,09,13,13,22,21.60
2007,09,13,13,23,21.60
2007,09,13,13,24,21.70
2007,09,13,13,25,21.80
2007,09,13,13,26,21.80
2007,09,13,13,27,21.80
2007,09,13,13,28,21.80
2007,09,13,13,29,21.80
2007,09,13,13,30,21.70
2007,09,13,13,31,21.70
2007,09,13,13,32,21.70
2007,09,13,13,33,21.70
2007,09,13,13,34,21.70
2007,09,13,13,35,21.60
2007,09,13,13,36,21.60
2007,09,13,13,37,21.70
2007,09,13,13,38,21.70
2007,09,13,13,39,21.70
2007,09,13,13,40,21.70
2007,09,13,13,41,21.70
2007,09,13,13,42,21.70
2007,09,13,13,43,21.80
2007,09,13,13,44,21.80
2007,09,13,13,45,21.90
2007,09,13,13,46,21.90
2007,09,13,13,47,21.90
2007,09,13,13,48,21.90
2007,09,13,13,49,21.80
2007,09,13,13,50,21.80
2007,09,13,13,51,21.80
2007,09,13,13,52,21.80
2007,09,13,13,53,21.90
2007,09,13,13,54,22.00
2007,09,13,13,55,22.00
2007,09,13,13,56,22.00
2007,09,13,13,57,22.00
2007,09,13,13,58,21.90
2007,09,13,13,59,21.90
2007,09,13,14,00,21.90
2007,09,13,14,01,21.90
2007,09,13,14,02,21.80
2007,09,13,14,03,21.80
2007,09,13,14,04,21.80
2007,09,13,14,05,21.80
2007,09,13,14,06,21.90
2007,09,13,14,07,21.90
2007,09,13,14,08,21.90
2007,09,13,14,09,21.90
2007,09,13,14,10,21.90
2007,09,13,14,11,21.90
2007,09,13,14,12,21.90
2007,09,13,14,13,21.90
2007,09,13,14,14,22.00
2007,09,13,14,15,22.10
2007,09,13,14,16,22.20
2007,09,13,14,17,22.30
2007,09,13,14,18,22.40
2007,09,13,14,19,22.40
2007,09,13,14,20,22.50
2007,09,13,14,21,22.40
2007,09,13,14,22,22.40
2007,09,13,14,23,22.40
2007,09,13,14,24,22.40
2007,09,13,14,25,22.40
2007,09,13,14,26,22.40
2007,09,13,14,27,22.30
2007,09,13,14,28,22.30
2007,09,13,14,29,22.30
2007,09,13,14,30,22.20
2007,09,13,14,31,22.20
2007,09,13,14,32,22.20
2007,09,13,14,33,22.10
2007,09,13,14,34,22.10
2007,09,13,14,35,22.20
2007,09,13,14,36,22.30
2007,09,13,14,37,22.30
2007,09,13,14,38,22.40
2007,09,13,14,39,22.40
2007,09,13,14,40,22.40
2007,09,13,14,41,22.40
2007,09,13,14,42,22.50
2007,09,13,14,43,22.50
2007,09,13,14,44,22.60
2007,09,13,14,45,22.60
2007,09,13,14,46,22.60
2007,09,13,14,47,22.60
2007,09,13,14,48,22.70
2007,09,13,14,49,22.70
2007,09,13,14,50,22.60
2007,09,13,14,51,22.60
2007,09,13,14,52,22.60
2007,09,13,14,53,22.70
2007,09,13,14,54,22.70
2007,09,13,14,55,22.70
2007,09,13,14,56,22.70
2007,09,13,14,57,22.70
2007,09,13,14,58,22.80
2007,09,13,14,59,22.80
2007,09,13,15,00,22.90
2007,09,13,15,01,22.90
2007,09,13,15,02,22.90
2007,09,13,15,03,22.90
2007,09,13,15,04,23.10
2007,09,13,15,05,23.10
2007,09,13,15,06,22.90
2007,09,13,15,07,22.90
2007,09,13,15,08,22.90
2007,09,13,15,09,22.90
2007,09,13,15,10,23.00
2007,09,13,15,11,23.10
2007,09,13,15,12,23.10
2007,09,13,15,13,23.10
2007,09,13,15,14,23.20
2007,09,13,15,15,23.20
2007,09,13,15,16,23.10
2007,09,13,15,17,23.00
2007,09,13,15,18,22.90
2007,09,13,15,19,22.90
2007,09,13,15,20,22.90
2007,09,13,15,21,22.90
2007,09,13,15,22,22.90
2007,09,13,15,23,22.90
2007,09,13,15,24,22.90
2007,09,13,15,25,22.90
2007,09,13,15,26,23.00
2007,09,13,15,27,23.10
2007,09,13,15,28,23.10
2007,09,13,15,29,23.10
2007,09,13,15,30,23.10
2007,09,13,15,31,23.10
2007,09,13,15,32,23.20
2007,09,13,15,33,23.20
2007,09,13,15,34,23.30
2007,09,13,15,35,23.20
2007,09,13,15,36,23.30
2007,09,13,15,37,23.30
2007,09,13,15,38,23.30
2007,09,13,15,39,23.30
2007,09,13,15,40,23.30
2007,09,13,15,41,23.40
2007,09,13,15,42,23.50
2007,09,13,15,43,23.60
2007,09,13,15,44,23.70
2007,09,13,15,45,23.70
2007,09,13,15,46,23.60
2007,09,13,15,47,23.50
2007,09,13,15,48,23.50
2007,09,13,15,49,23.60
2007,09,13,15,50,23.60
2007,09,13,15,51,23.60
2007,09,13,15,52,23.50
2007,09,13,15,53,23.60
2007,09,13,15,54,23.60
2007,09,13,15,55,23.60
2007,09,13,15,56,23.60
2007,09,13,15,57,23.70
2007,09,13,15,58,23.70
2007,09,13,15,59,23.70
2007,09,13,16,00,23.70
2007,09,13,16,01,23.60
2007,09,13,16,02,23.60
2007,09,13,16,03,23.60
2007,09,13,16,04,23.60
2007,09,13,16,05,23.60
2007,09,13,16,06,23.60
2007,09,13,16,07,23.70
2007,09,13,16,08,23.70
2007,09,13,16,09,23.70
2007,09,13,16,10,23.70
2007,09,13,16,11,23.70
2007,09,13,16,12,23.70
2007,09,13,16,13,23.70
2007,09,13,16,14,23.70
2007,09,13,16,15,23.70
2007,09,13,16,16,23.70
2007,09,13,16,17,23.80
2007,09,13,16,18,23.90
2007,09,13,16,19,23.90
2007,09,13,16,20,23.90
2007,09,13,16,21,23.90
2007,09,13,16,22,23.90
2007,09,13,16,23,23.90
2007,09,13,16,24,23.80
2007,09,13,16,25,23.70
2007,09,13,16,26,23.70
2007,09,13,16,27,23.70
2007,09,13,16,28,23.70
2007,09,13,16,29,23.70
2007,09,13,16,30,23.80
2007,09,13,16,31,23.80
2007,09,13,16,32,23.80
2007,09,13,16,33,23.80
2007,09,13,16,34,23.90
2007,09,13,16,35,23.90
2007,09,13,16,36,23.80
2007,09,13,16,37,23.80
2007,09,13,16,38,23.80
2007,09,13,16,39,23.80
2007,09,13,16,40,23.70
2007,09,13,16,41,23.70
2007,09,13,16,42,23.70
2007,09,13,16,43,23.70
2007,09,13,16,44,23.70
2007,09,13,16,45,23.70
2007,09,13,16,46,23.70
2007,09,13,16,47,23.70
2007,09,13,16,48,23.70
2007,09,13,16,49,23.80
2007,09,13,16,50,23.80
2007,09,13,16,51,23.80
2007,09,13,16,52,23.90
2007,09,13,16,53,23.90
2007,09,13,16,54,23.90
2007,09,13,16,55,23.90
2007,09,13,16,56,23.90
2007,09,13,16,57,23.90
2007,09,13,16,58,23.90
2007,09,13,16,59,23.90
2007,09,13,17,00,23.80
2007,09,13,17,01,23.80
2007,09,13,17,02,23.80
2007,09,13,17,03,23.80
2007,09,13,17,04,23.90
2007,09,13,17,05,23.90
2007,09,13,17,06,23.90
2007,09,13,17,07,23.90
2007,09,13,17,08,23.90
2007,09,13,17,09,23.90
2007,09,13,17,10,23.80
2007,09,13,17,11,23.80
2007,09,13,17,12,23.80
2007,09,13,17,13,23.70
2007,09,13,17,14,23.70
2007,09,13,17,15,23.70
2007,09,13,17,16,23.70
2007,09,13,17,17,23.70
2007,09,13,17,18,23.70
2007,09,13,17,19,23.70
2007,09,13,17,20,23.70
2007,09,13,17,21,23.60
2007,09,13,17,22,23.60
2007,09,13,17,23,23.50
2007,09,13,17,24,23.40
2007,09,13,17,25,23.50
2007,09,13,17,26,23.60
2007,09,13,17,27,23.60
2007,09,13,17,28,23.60
2007,09,13,17,29,23.60